TimeCST,TemperatureF,Dew PointF,Humidity,Sea Level PressureIn,VisibilityMPH,Wind Direction,Wind SpeedMPH,Gust SpeedMPH,PrecipitationIn,Events,Conditions,WindDirDegrees,DateUTC
12:34 AM,24.8,23.0,93,30.06,1.8,ENE,9.2,-,N/A,Snow,Light Snow,70,2013-03-05 06:34:00
12:55 AM,24.8,23.0,93,30.06,2.5,ENE,9.2,-,N/A,Snow,Light Snow,70,2013-03-05 06:55:00
1:14 AM,24.8,23.0,93,30.07,2.0,ENE,10.4,-,N/A,Snow,Light Snow,70,2013-03-05 07:14:00
1:34 AM,24.8,23.0,93,30.08,2.5,ENE,9.2,-,N/A,Snow,Light Snow,70,2013-03-05 07:34:00
1:55 AM,24.8,23.0,93,30.08,3.0,ENE,9.2,-,N/A,Snow,Light Snow,70,2013-03-05 07:55:00
2:14 AM,24.8,21.2,86,30.09,2.5,ENE,10.4,-,N/A,Snow,Light Snow,70,2013-03-05 08:14:00
2:35 AM,24.8,21.2,86,30.10,2.5,ENE,9.2,-,N/A,Snow,Light Snow,70,2013-03-05 08:35:00
2:55 AM,24.8,21.2,86,30.09,2.5,ENE,9.2,-,N/A,Snow,Light Snow,70,2013-03-05 08:55:00
3:14 AM,24.8,21.2,86,30.10,2.5,ENE,6.9,-,N/A,Snow,Light Snow,70,2013-03-05 09:14:00
3:35 AM,24.8,21.2,86,30.10,2.5,ENE,9.2,-,N/A,Snow,Light Snow,60,2013-03-05 09:35:00
3:55 AM,23.0,21.2,93,30.11,2.5,NE,8.1,-,N/A,Snow,Light Snow,50,2013-03-05 09:55:00
4:14 AM,23.0,21.2,93,30.12,2.5,NE,8.1,-,N/A,Snow,Light Snow,40,2013-03-05 10:14:00
4:35 AM,23.0,21.2,93,30.13,4.0,NNE,9.2,-,N/A,Snow,Light Snow,30,2013-03-05 10:35:00
5:14 AM,23.0,21.2,93,30.14,3.0,NNE,9.2,-,N/A,Snow,Light Snow,30,2013-03-05 11:14:00
5:35 AM,23.0,21.2,93,30.15,3.0,NNE,9.2,-,N/A,Snow,Light Snow,30,2013-03-05 11:35:00
6:35 AM,23.0,21.2,93,30.17,4.0,NNE,10.4,-,N/A,Snow,Light Snow,20,2013-03-05 12:35:00
6:55 AM,23.0,21.2,93,30.18,4.0,NNE,11.5,-,N/A,Snow,Light Snow,30,2013-03-05 12:55:00
7:14 AM,23.0,21.2,93,30.18,3.0,NE,11.5,-,N/A,Snow,Light Snow,40,2013-03-05 13:14:00
7:35 AM,23.0,19.4,86,30.19,4.0,NNE,10.4,-,N/A,Snow,Light Snow,30,2013-03-05 13:35:00
7:54 AM,21.2,19.4,93,30.20,7.0,NNE,11.5,-,N/A,,Clear,30,2013-03-05 13:54:00
8:14 AM,21.2,19.4,93,30.21,7.0,NNE,11.5,-,N/A,,Clear,30,2013-03-05 14:14:00
8:35 AM,21.2,19.4,93,30.22,5.0,NNE,11.5,-,N/A,,Clear,30,2013-03-05 14:35:00
8:54 AM,21.2,19.4,93,30.23,4.0,NNE,10.4,-,N/A,Snow,Light Snow,30,2013-03-05 14:54:00
9:14 AM,21.2,19.4,93,30.24,5.0,NNE,10.4,-,N/A,,Clear,20,2013-03-05 15:14:00
9:35 AM,21.2,17.6,86,30.25,7.0,North,12.7,-,N/A,,Clear,10,2013-03-05 15:35:00
9:54 AM,21.2,17.6,86,30.25,10.0,NNE,12.7,17.3,N/A,,Clear,20,2013-03-05 15:54:00
10:15 AM,21.2,17.6,86,30.26,10.0,NNE,13.8,-,N/A,,Clear,20,2013-03-05 16:15:00
10:34 AM,21.2,17.6,86,30.27,10.0,NNE,13.8,18.4,N/A,,Clear,20,2013-03-05 16:34:00
10:54 AM,21.2,17.6,86,30.27,10.0,NNE,12.7,-,N/A,,Clear,20,2013-03-05 16:54:00
11:15 AM,23.0,17.6,80,30.27,10.0,NNE,11.5,-,N/A,,Clear,20,2013-03-05 17:15:00
11:34 AM,23.0,17.6,80,30.28,10.0,NNE,12.7,-,N/A,,Clear,20,2013-03-05 17:34:00
11:54 AM,23.0,17.6,80,30.28,10.0,NNE,12.7,-,N/A,,Clear,20,2013-03-05 17:54:00
12:15 PM,23.0,17.6,80,30.29,10.0,North,15.0,-,N/A,,Clear,10,2013-03-05 18:15:00
12:34 PM,23.0,17.6,80,30.29,10.0,North,13.8,-,N/A,,Clear,10,2013-03-05 18:34:00
12:54 PM,23.0,17.6,80,30.30,10.0,North,13.8,-,N/A,,Clear,10,2013-03-05 18:54:00
1:14 PM,23.0,17.6,80,30.30,10.0,North,13.8,-,N/A,,Clear,360,2013-03-05 19:14:00
1:34 PM,23.0,17.6,80,30.30,10.0,North,15.0,-,N/A,,Clear,360,2013-03-05 19:34:00
1:55 PM,23.0,17.6,80,30.30,10.0,North,17.3,-,N/A,,Clear,350,2013-03-05 19:55:00
2:14 PM,23.0,17.6,80,30.31,10.0,North,18.4,-,N/A,,Clear,360,2013-03-05 20:14:00
2:35 PM,23.0,17.6,80,30.31,2.5,North,16.1,-,N/A,,Haze,360,2013-03-05 20:35:00
2:54 PM,23.0,17.6,80,30.31,10.0,North,11.5,-,N/A,,Clear,10,2013-03-05 20:54:00
3:14 PM,23.0,17.6,80,30.31,10.0,North,10.4,-,N/A,,Clear,10,2013-03-05 21:14:00
3:35 PM,23.0,17.6,80,30.32,10.0,NNE,11.5,-,N/A,,Clear,20,2013-03-05 21:35:00
3:54 PM,21.2,17.6,86,30.32,10.0,North,10.4,-,N/A,,Clear,10,2013-03-05 21:54:00
4:15 PM,21.2,17.6,86,30.33,10.0,North,12.7,-,N/A,,Clear,360,2013-03-05 22:15:00
4:34 PM,21.2,19.4,93,30.33,10.0,North,15.0,-,N/A,,Scattered Clouds,350,2013-03-05 22:34:00
4:54 PM,21.2,19.4,93,30.34,10.0,North,16.1,-,N/A,,Mostly Cloudy,350,2013-03-05 22:54:00
5:15 PM,21.2,19.4,93,30.34,10.0,North,16.1,-,N/A,,Overcast,350,2013-03-05 23:15:00
5:34 PM,21.2,19.4,93,30.34,10.0,North,15.0,-,N/A,,Overcast,350,2013-03-05 23:34:00
5:54 PM,21.2,19.4,93,30.35,10.0,North,13.8,-,N/A,,Overcast,350,2013-03-05 23:54:00
6:15 PM,21.2,17.6,86,30.35,10.0,North,13.8,-,N/A,,Overcast,350,2013-03-06 00:15:00
6:34 PM,21.2,17.6,86,30.36,10.0,North,15.0,-,N/A,,Overcast,350,2013-03-06 00:34:00
6:54 PM,21.2,17.6,86,30.36,10.0,NNW,11.5,-,N/A,,Overcast,340,2013-03-06 00:54:00
7:15 PM,19.4,17.6,93,30.37,10.0,North,12.7,-,N/A,,Overcast,350,2013-03-06 01:15:00
7:34 PM,19.4,17.6,93,30.37,10.0,North,11.5,-,N/A,,Overcast,350,2013-03-06 01:34:00
7:54 PM,19.4,17.6,93,30.37,10.0,NNW,12.7,-,N/A,,Overcast,340,2013-03-06 01:54:00
8:15 PM,19.4,17.6,93,30.37,10.0,NNW,12.7,-,N/A,,Overcast,340,2013-03-06 02:15:00
8:35 PM,19.4,17.6,93,30.37,10.0,North,12.7,-,N/A,,Overcast,350,2013-03-06 02:35:00
8:54 PM,19.4,17.6,93,30.37,10.0,North,13.8,-,N/A,,Overcast,350,2013-03-06 02:54:00
9:15 PM,19.4,17.6,93,30.37,10.0,North,13.8,-,N/A,,Overcast,350,2013-03-06 03:15:00
9:34 PM,19.4,17.6,93,30.37,10.0,North,11.5,-,N/A,,Overcast,350,2013-03-06 03:34:00
9:54 PM,19.4,17.6,93,30.38,10.0,NNW,12.7,-,N/A,,Overcast,340,2013-03-06 03:54:00
10:15 PM,19.4,17.6,93,30.39,10.0,North,11.5,-,N/A,,Overcast,360,2013-03-06 04:15:00
10:34 PM,19.4,17.6,93,30.39,10.0,North,11.5,-,N/A,Snow,Light Snow,360,2013-03-06 04:34:00
10:54 PM,19.4,17.6,93,30.39,10.0,North,11.5,-,N/A,Snow,Light Snow,350,2013-03-06 04:54:00
11:15 PM,17.6,15.8,93,30.39,10.0,North,9.2,-,N/A,Snow,Light Snow,360,2013-03-06 05:15:00
11:34 PM,17.6,15.8,93,30.39,10.0,North,9.2,-,N/A,Snow,Light Snow,360,2013-03-06 05:34:00
11:54 PM,17.6,15.8,93,30.40,7.0,North,9.2,-,N/A,Snow,Light Snow,350,2013-03-06 05:54:00